Retour au catalogue

STARLINK-5776

ActifCommunicationsVLEO
NORAD 57151·PAYLOAD·🇺🇸 United States

Lancé Jun 23, 2023 depuis Cape Canaveral Space Force Station

Loading…

Prochains Passages (prochaines 24 heures)

TLE

FraisSource: CelesTrak SupGP

Époque: Sep 15, 2026, 02:51 UTC

1 57151C 23090BC  26258.11923611 -.00008782  00000+0 -31801-3 0  2580
2 57151  42.9998 273.6362 0001515 267.0697  71.8861 15.27588653    12

Suivez STARLINK-5776 en temps réel avec AllMySat

Download on the App Store